Погода Айон Остров

Погода Айон Остров : погода сейчас, прогноз погоды и архив. Всё, что Вы хотите узнать о погоде Айон Остров!

Поиск расширенной информации на нашем сайте:

Другие новости

Новости СМИ2

Главная страница сайта

Новости сайта

03.07.2017

Напоминаем, что на нашем специализированном сайте Метеоцентр.Азия вы можете получить высокодетализированные автоматические прогнозы погоды по пунктам России, СНГ и мира в авиационном формате (включающие направление и скорость ветра, видимость, явления погоды, количество и форму облачности, нижнюю и верхнюю границу облачности).


Погода Айон Остров - сегодня

Время (UTC), дата Ветер
(°,м/с) 
Видим.   Явления Облачность Т
(°С)
Тd
(°С)
f(%) Тe
(°С)
Pmin
(гПа)
dP
(гПа)
Po
(мм)
O2
(г/м3)
Тmin Tmax R s Состояние
почвы
15 09.12.17 230 (ЮЗ) 6-7{08}  4000 м  слаб. снег  10/8 200 м средняя 
[Frnb|As op]
-12.7 -13.6 93 -19  1027.2  0.5  769  326           
18 09.12.17 230 (ЮЗ) 4-5{08}  4000 м  слаб. снег  10/8 200 м средняя 
[Frnb|As op]
-12.9 -13.8 93 -17  1027.7  0.5  769  327           
21 09.12.17 210 (ЮЗ) 3-4{05}  20000 м  {снег}  10/10 540 м 
[Sc]
-13.2 -14.5 90 -17  1028.4  0.7  770  327  -13.3    0.3  равномерный
сухой снег
100% 
00 10.12.17 230 (ЮЗ) 3-4{06}  20000 м  {снег}  10/10 450 м 
[Sc]
-14.2 -15.5 90 -18  1029.2  0.8  770  329  -14.2         
03 10.12.17 210 (ЮЗ) 4-5{06}  20000 м    10/10 420 м 
[St]
-14.5 -15.8 90 -19  1029.6  0.4  771  329           
06 10.12.17 200 (Ю) 2-3{05}  20000 м    10/10 420 м 
[St]
-14.6 -15.9 90 -17  1029.8  0.2  771  330           
09 10.12.17 270 (З) 1-1{03}  20000 м    10/10 420 м 
[St]
-14.5 -16.5 85 -15  1030.6  0.8  772  330    -13.2       
12 10.12.17 тихо () -0{02}  20000 м    10/0 средняя 
[Ac und]
-14.3 -15.6 90 -14  1031.5  0.9  772  330           
15 10.12.17 200 (Ю) 1-1{01}  20000 м    10/0 средняя 
[Ac und]
-14.8 -16.1 90 -15  1031.5  772  330           
18 10.12.17 230 (ЮЗ) 2-2{02}  10 км  в посл. час снег  10/0 средняя 
[As op]
-15.6 -16.9 90 -18  1032.5  773  332           
21 10.12.17 240 (ЮЗ) 2-2{03}  20000 м    10/0 средняя 
[As op]
-16 -17.3 90 -18  1033.1  0.6  766  329  -17    0.3  равномерный
сухой снег
100% 
00 11.12.17 240 (ЮЗ) 2-3{04}  20000 м    10/10 420 м 
[St]
-18 -19.4 89 -21  1033.8  0.7  774  335  -18.2         
03 11.12.17 010 (С) 3-4{05}  20000 м    10/10 300 м 
[St]
-15.6 -16.9 90 -19  1034.3  0.5  774  332           
06 11.12.17 340 (С) 4-5{06}  4000 м  слаб. снег  10/8 300 м средняя 
[Frnb|As op]
-16.9 -18.2 90 -22  1035.5  1.2  775  335           
09 11.12.17 310 (СЗ) 5-6{07}  20000 м  позёмок{снег}  10/8 360 м средняя 
[St|As op]
-19.4 -20.9 88 -26  1036  0.5  776  338    -14.9  0.4     
12 11.12.17 290 (З) 8-9{10}  10 км  позёмок{снег}  10/5 300 м средняя 
[Sc|As op]
-21.1 -22.9 85 -30    777  341           
15 11.12.17 300 (СЗ) 9-11{12}  4000 м  метель  10/0 средняя 
[As op]
-21.9 -23.8 84 -31  1035.5  -0.5  775  341           
18 11.12.17 300 (СЗ) 9-12{13}  4000 м  метель  10/0 средняя 
[As op]
-22 -24.1 83 -32  1035.7  0.2  775  342           
21 11.12.17 290 (З) 9-12{12}  4000 м  метель  10/0 средняя 
[As op]
-22 -24.2 82 -32  1036.2  0.5  776  342  -22.3      равномерный
сухой снег
100% 
00 12.12.17 280 (З) 9-11{12}  4000 м  метель  10/0 средняя 
[As op]
-23 -25 84 -33  1036.4  0.2  776  343  -23         
03 12.12.17 270 (З) 7-9{12}  10 км  позёмок  10/0 средняя 
[As op]
-22.3 -24.4 83 -31  1035.9  -0.5  776  342           
06 12.12.17 270 (З) 5-6{09}  20000 м  позёмок  10/0 средняя 
[As op]
-20.7 -22.4 86 -27  1035.4  -0.5  775  340           
09 12.12.17 320 (СЗ) 6-7{07}  4000 м  слаб. снег  10/0 средняя 
[As op]
-18.7 -20.6 85 -26  1034.8  -0.6  775  337    -18.5  0.3     
12 12.12.17 320 (СЗ) 6-7{09}  4000 м  слаб. снег  10/0 средняя 
[As op]
-19.4 -21.1 86 -27  1034.4  -0.4  774  338           
15 12.12.17 350 (С) 4-6{07}  4000 м  слаб. снег  10/0 средняя 
[As op]
-21.1 -23 85 -27  1033.6  -0.8  774  340           
Время (UTC), дата Ветер
(°,м/с) 
Видим.   Явления Облачность Т
(°С)
Тd
(°С)
f(%) Тe
(°С)
Pmin
(гПа)
dP
(гПа)
Po
(мм)
O2
(г/м3)
Тmin Tmax R s Состояние
почвы

Для получения пояснительной информации подведите курсор к названию столбца.

ПОГОДА Айон Остров - архив

Всё, что Вы хотите узнать о погоде Айон Остров - удобно и подробно!

Выберите нужную дату (начиная с 1 января 2015* года) и нажмите кнопку "Найти".
Будут отображены архивные сводки погоды по пункту Айон Остров, начиная с указанной даты.


Отображать данные в формате CSV (для использования в таблицах Excel)


Внимание! Наш архив погоды предназначен исключительно для личного некоммерческого использования в познавательных целях. Если Вам необходимы официальные справки о состоянии погоды (для производственных, юридических, коммерческих и т.п. целей), обращайтесь в органы Росгидромета.

*Примечание: данная дата относится к архиву по метеостанциям СССР (Россия, СНГ, Балтия).
Архив по метеостанциям Зарубежной Европы и Азии (кроме Китая) хранится 10 дней, по другим регионам земного шара (Китай, Африка, Америка, Австралия, Океания) - 1 день.

Айон Остров - район местоположения метеостанции


Название, широта, долгота, высота метеостанции:
Айон Остров 69.8°ш. 168.7°д. 16 м над ур. моря [Российская Федерация]

Дополнительная информация

В oтличие oт бoльшинства пoгoдных сайтoв мы публикуем пoдрoбную метеoинфoрмацию в детальнoм прoфессиoнальнoм фoрмате.

Характеристики температуры и влажнoсти вoздуха измеряются на высoте 2 м в тени вдали oт зданий и деревьев.
Скoрoсть ветра измеряется на высoте 10 м (на урoвне рoста челoвека скoрoсть ветра ниже в 1.5-2 раза). Если метеoстанция нахoдится в гoрoде или в лесу, тo скoрoсть ветра занижена на 2-4 м/с пo сравнению с oткрытым местoм. Скoрoсть ветра над акватoриями крупных рек и oзёр, а также на вершинах хoлмoв на 2-5 м/с выше, чем в oбычных услoвиях.
Атмoсфернoе давление в разных тoчках местнoсти мoжет значительнo oтличаться oт давления на метеoстанции, в зависимoсти oт услoвий рельефа (при пoдъёме на 10 м давление пoнижается примернo на 1 мм рт.ст.).